Temp
45 46 47 48 48 48 49 49 50 51 51 51 51 51 51 51 50 51 51 51 51 51 51 52 52 52 53 52 51 51 50 49 49 49 50 51 50 50 50 49 49 49 49 49 49 49 50 50 49 48 48 48 48 48 48 48 48 48 47 47 46 46 46 46 45 45 46 46 46
45 46 46 47 48 48 48 48 49 50 50 50 50 50 50 50 50 50 51 51 51 51 51 51 52 52 52 51 51 50 49 49 48 48 49 49 50 50 50 49 49 49 49 48 49 49 49 49 49 48 47 47 48 48 48 48 48 47 47 47 46 46 46 46 46 46 46 46 46
45 45 45 45 45 46 46 47 48 48 49 49 49 48 48 48 49 49 50 51 51 50 50 50 51 51 51 51 50 49 49 48 48 48 48 49 49 49 49 49 49 49 49 49 48 49 49 49 49 48 47 47 47 47 47 48 48 48 47 46 46 46 46 45 46 46 46 45 45
44 44 44 44 44 44 45 46 46 47 47 47 47 47 47 47 47 48 49 49 49 49 49 50 51 52 52 51 50 49 48 48 48 48 48 48 48 48 48 48 48 48 48 48 48 48 49 49 48 48 48 48 47 47 47 48 48 48 47 47 46 46 46 45 46 46 46 45 45
44 44 44 44 44 44 44 44 44 45 45 46 45 45 45 46 47 47 47 47 48 49 50 50 50 50 51 50 49 48 48 47 48 48 48 48 48 48 48 47 47 48 48 48 48 48 48 48 48 48 48 48 47 47 47 48 48 47 47 47 46 46 46 45 46 46 46 45 45
45 44 44 43 42 42 43 43 43 43 43 43 43 43 44 45 46 46 46 47 48 48 48 48 48 48 49 49 48 47 47 47 47 47 47 47 48 48 48 47 47 47 47 48 48 48 48 48 47 47 47 48 47 48 48 48 48 47 47 46 46 46 46 46 46 46 46 45 45
43 43 43 43 42 42 42 42 42 41 41 41 41 42 43 44 45 45 45 45 46 46 46 47 47 47 47 47 47 47 47 47 47 47 46 46 47 47 47 47 47 47 47 47 47 47 47 47 46 47 47 47 47 48 48 48 47 47 46 46 46 46 46 45 45 45 45 45 45
42 42 42 42 42 41 41 41 40 40 40 41 41 42 43 43 43 43 44 44 44 45 45 46 46 46 45 45 45 46 46 46 46 46 46 46 46 46 46 46 46 46 46 47 47 47 47 47 46 46 47 47 47 47 47 47 46 45 45 45 46 46 46 44 44 44 44 44 43
44 44 43 42 42 41 41 40 40 39 39 40 41 42 42 42 42 42 43 43 45 45 45 45 45 45 44 44 44 44 45 45 45 46 46 46 45 45 45 45 45 46 46 47 47 47 46 46 46 46 47 47 47 47 47 46 45 44 44 45 45 46 46 45 44 44 44 43 42
44 44 44 43 43 42 41 40 39 39 39 40 41 42 42 43 43 44 44 45 45 45 45 45 44 44 43 43 43 43 44 44 45 45 45 45 45 45 45 45 45 46 47 48 48 48 47 46 46 46 47 47 46 46 46 45 44 43 43 44 44 44 44 45 45 44 43 42 40
44 44 44 44 43 42 41 40 40 40 41 41 42 42 43 43 44 44 44 44 44 43 44 44 44 43 43 43 44 44 44 44 45 45 45 45 45 45 45 45 45 46 47 48 48 48 48 47 47 46 46 46 46 45 45 44 44 42 42 43 43 43 42 43 43 43 42 42 40
43 43 43 43 42 41 40 40 41 42 42 42 42 43 43 44 44 44 43 43 43 43 44 44 44 43 43 44 44 45 45 45 45 45 45 45 45 45 45 44 44 45 46 46 47 47 47 46 46 45 45 46 46 45 45 44 43 42 41 41 42 41 41 41 41 41 41 41 40
42 42 42 42 41 40 40 41 41 42 42 43 43 44 44 45 45 44 44 43 43 44 45 45 45 44 44 44 45 45 45 46 45 45 45 45 45 45 45 44 43 44 45 45 46 46 46 45 44 44 44 44 44 45 44 43 42 41 41 40 40 40 40 39 39 40 40 41 40
42 42 42 42 41 41 41 41 42 42 43 43 44 44 44 45 45 45 44 44 44 44 45 45 46 46 46 46 45 45 45 45 45 45 45 45 45 45 44 43 42 42 43 44 45 45 44 43 43 43 42 42 43 43 43 43 42 41 40 40 39 38 38 38 38 38 38 38 39
42 42 42 41 41 41 41 41 42 43 43 44 44 45 45 45 46 46 45 45 44 45 45 45 46 46 47 46 46 45 45 45 45 45 45 45 45 45 44 42 40 40 42 43 44 43 42 41 41 41 42 41 41 42 42 42 41 40 39 39 38 38 38 38 38 37 37 37 37
42 42 42 42 42 42 42 42 43 44 44 44 45 45 45 45 46 46 46 45 45 45 46 45 46 46 46 46 46 46 45 45 45 45 44 44 44 44 44 42 39 39 39 40 41 42 41 40 40 40 41 40 40 40 40 40 40 39 39 38 38 38 38 37 37 37 37 37 37
43 43 42 42 42 42 42 43 44 44 44 45 45 45 45 45 45 46 46 46 46 46 45 45 46 46 46 46 46 46 46 46 45 45 45 45 44 44 43 41 39 38 37 37 39 39 40 39 40 40 40 40 39 39 39 39 39 39 38 38 38 38 37 37 36 36 36 36 37
43 43 42 42 42 42 42 42 43 44 44 44 44 44 45 45 45 45 45 45 45 45 44 44 45 45 45 45 45 46 46 45 45 45 45 45 44 43 42 41 39 37 36 36 37 37 38 38 39 40 40 39 39 38 38 38 38 38 38 38 38 37 36 36 35 35 36 37 37
42 42 42 42 42 42 42 43 43 43 44 44 44 44 44 44 44 44 44 44 44 44 44 44 44 44 45 44 45 45 45 45 45 45 44 44 44 43 42 41 39 37 36 36 36 36 37 38 39 39 40 39 39 38 38 38 38 38 38 37 36 36 35 35 35 36 37 37 37
42 42 42 42 42 42 42 43 43 43 43 43 43 43 43 43 43 43 43 43 44 44 44 44 44 44 44 44 44 44 44 45 44 44 44 44 43 42 41 40 38 36 36 35 35 36 36 38 39 39 39 39 38 38 38 38 38 37 36 36 35 35 35 35 36 36 37 38 38
42 42 42 42 42 42 42 42 43 42 42 42 42 42 42 43 43 43 43 43 44 44 44 43 43 43 43 44 43 43 44 45 44 44 44 44 42 41 40 39 37 36 35 35 35 35 36 37 38 38 38 38 37 37 37 37 37 37 37 37 37 36 36 37 37 37 37 38 38
42 42 42 42 42 42 42 42 42 42 42 42 42 42 42 42 43 43 43 43 44 44 43 43 43 43 43 43 43 43 43 44 44 44 44 43 42 42 41 40 37 36 35 35 35 35 35 36 37 37 36 36 35 35 36 37 37 37 38 38 38 38 38 38 39 38 38 38 38
42 42 42 42 42 42 42 42 42 42 41 41 42 42 42 42 43 43 43 43 43 43 43 43 43 43 43 43 43 43 43 43 43 43 43 43 43 42 41 40 38 36 36 36 36 36 35 35 35 35 35 35 35 35 35 36 36 36 37 37 37 37 38 38 39 39 39 39 39
42 42 42 42 42 41 41 41 41 41 41 41 41 42 42 42 42 43 43 43 42 42 42 43 43 43 43 43 42 42 42 42 42 42 42 43 43 42 41 40 38 38 38 37 38 38 38 38 37 36 36 36 35 36 36 35 36 36 36 36 37 37 38 38 39 39 39 39 39
41 41 41 41 41 41 41 41 40 40 41 41 41 42 42 42 42 42 42 42 42 42 42 42 42 42 42 42 42 42 42 42 41 41 41 42 42 42 42 41 41 39 38 37 40 42 43 43 42 40 39 39 39 39 38 36 36 36 35 36 36 37 38 38 39 39 39 38 38
41 41 40 40 40 40 40 40 40 40 41 41 41 41 41 42 42 42 41 41 41 41 41 41 41 42 42 42 42 42 42 42 42 41 41 41 41 41 41 41 41 39 37 37 41 43 44 45 45 44 42 41 41 40 39 38 37 36 37 37 37 37 38 38 39 39 39 39 38
40 40 40 40 40 39 40 40 40 40 40 41 41 41 41 41 41 41 41 40 40 41 41 41 41 41 42 42 41 41 41 41 41 41 40 40 40 40 40 41 40 38 37 39 42 44 45 45 46 45 44 43 41 40 40 40 39 38 38 38 38 38 38 38 39 40 40 40 40
39 39 39 39 39 39 40 40 40 40 40 40 40 40 40 41 40 40 40 40 40 40 40 40 41 41 42 42 41 40 40 40 41 41 40 40 40 40 40 40 40 39 39 42 43 44 45 45 46 46 45 44 42 39 38 39 39 40 40 40 40 40 40 40 41 41 41 41 41
38 38 38 38 38 39 39 40 40 40 40 40 40 40 40 40 40 39 39 39 39 39 39 40 41 41 41 40 40 40 40 40 40 40 40 39 40 40 40 40 40 41 42 43 44 44 45 45 45 45 46 46 44 42 41 41 41 41 41 41 42 42 42 42 42 41 41 41 41
38 38 38 38 38 38 39 39 39 40 40 40 40 40 39 39 39 39 39 39 39 39 39 40 40 40 39 39 39 40 40 40 40 40 39 39 39 39 40 40 40 40 41 43 43 44 44 45 45 45 46 46 45 42 40 40 40 41 41 41 42 42 42 42 42 41 41 41 40
37 37 37 37 38 38 38 39 39 40 40 40 39 39 39 38 38 38 38 38 39 39 40 40 39 39 39 39 39 39 39 39 39 39 39 39 39 40 40 40 40 39 40 42 43 44 44 45 45 45 46 46 45 43 40 40 40 41 41 41 42 42 42 42 42 41 41 41 41
37 37 37 37 37 38 38 39 39 39 39 39 39 38 38 38 38 38 38 39 39 39 39 39 38 38 39 39 39 39 39 39 39 39 39 39 39 39 39 40 40 40 40 42 43 44 44 45 45 45 46 46 45 43 41 40 40 41 42 42 42 42 42 41 41 42 42 43 43
36 36 36 36 37 37 38 38 39 39 39 39 38 38 38 37 38 38 38 38 38 38 38 38 38 38 38 38 38 38 38 39 39 39 39 39 39 39 39 39 40 40 41 43 43 44 44 45 45 45 46 46 44 43 41 41 41 41 41 41 41 42 42 42 42 43 43 43 44
35 35 35 36 36 37 38 38 39 39 38 38 38 38 37 37 37 37 37 38 38 38 38 38 38 38 38 38 38 38 38 39 39 39 39 39 39 39 39 39 40 41 42 43 44 44 44 45 45 45 46 46 44 42 41 41 41 41 41 41 41 41 42 42 42 43 43 43 43
35 35 35 36 37 37 38 38 38 38 38 37 37 37 37 37 36 37 37 38 38 39 38 38 39 39 39 39 38 38 38 38 38 39 39 39 39 38 39 39 40 41 42 43 44 44 44 45 45 45 45 45 42 41 41 41 41 41 41 41 41 41 41 41 41 42 43 43 43
35 35 35 36 37 37 38 38 38 37 37 37 36 36 36 37 37 37 38 38 38 38 38 38 38 38 38 38 38 38 38 38 38 38 38 39 39 39 39 39 40 41 42 43 44 44 45 45 45 45 45 43 41 40 40 40 40 40 41 41 42 42 42 41 41 42 42 42 43
35 36 36 36 37 37 37 37 37 37 36 36 36 36 36 36 37 37 38 38 38 37 37 37 38 38 37 37 38 38 38 38 38 38 38 39 39 39 39 39 40 41 42 43 44 44 44 45 45 45 44 42 40 40 40 40 40 40 41 41 41 42 42 42 42 42 42 42 42
37 37 37 36 36 37 37 37 36 36 36 36 36 36 37 37 37 37 38 38 38 37 37 37 37 37 37 37 37 38 38 38 39 39 39 39 39 39 39 40 40 41 42 43 44 44 44 44 45 44 44 41 41 40 40 39 39 39 40 40 40 41 42 42 42 42 42 41 42
37 37 37 36 36 36 36 36 36 36 36 36 36 36 37 37 37 38 38 39 38 37 37 36 36 37 37 37 37 38 38 39 39 39 39 39 40 40 40 40 40 41 42 43 43 44 44 44 44 44 44 42 41 40 39 39 39 39 39 40 40 41 41 41 42 42 42 42 43
37 37 37 36 36 36 36 36 36 36 36 36 36 36 37 37 38 38 39 39 38 38 37 36 36 37 37 38 38 38 38 39 39 39 40 40 40 41 41 40 40 41 42 42 43 43 43 44 44 44 44 42 41 40 39 39 39 39 39 39 40 40 40 41 41 42 42 43 43
37 37 36 36 36 36 36 36 36 36 36 36 36 37 37 38 38 38 38 38 38 37 37 37 37 37 38 38 38 38 38 38 39 39 40 40 40 41 41 40 40 40 41 42 42 43 43 44 44 44 44 43 41 40 40 39 39 39 39 39 39 39 40 40 41 42 42 43 43
MSLP
1022.31 1022.23 1022.15 1022.07 1021.95 1021.83 1021.67 1021.51 1021.35 1021.23 1021.11 1021.03 1020.87 1020.71 1020.63 1020.51 1020.47 1020.31 1020.15 1020.07 1019.99 1019.87 1019.71 1019.59 1019.43 1019.27 1019.15 1019.11 1019.11 1019.11 1019.07 1019.07 1019.03 1018.99 1018.95 1018.87 1018.79 1018.75 1018.71 1018.71 1018.75 1018.79 1018.75 1018.67 1018.67 1018.67 1018.67 1018.67 1018.71 1018.71 1018.67 1018.67 1018.59 1018.51 1018.51 1018.47 1018.47 1018.43 1018.39 1018.35 1018.27 1018.23 1018.23 1018.23 1018.23 1018.19 1018.15 1018.15 1018.11
1022.15 1022.11 1022.07 1021.99 1021.87 1021.75 1021.63 1021.47 1021.31 1021.11 1020.99 1020.87 1020.75 1020.63 1020.51 1020.43 1020.35 1020.19 1020.03 1019.91 1019.79 1019.67 1019.55 1019.39 1019.27 1019.15 1019.07 1018.95 1018.95 1018.95 1018.95 1018.91 1018.83 1018.79 1018.79 1018.67 1018.59 1018.51 1018.51 1018.51 1018.47 1018.43 1018.39 1018.39 1018.39 1018.39 1018.39 1018.35 1018.39 1018.39 1018.39 1018.31 1018.27 1018.23 1018.11 1018.07 1018.07 1018.07 1018.03 1017.95 1017.91 1017.87 1017.87 1017.87 1017.75 1017.67 1017.67 1017.75 1017.79
1022.07 1021.99 1021.95 1021.91 1021.87 1021.79 1021.63 1021.47 1021.23 1021.11 1020.95 1020.83 1020.71 1020.63 1020.51 1020.43 1020.31 1020.11 1019.95 1019.71 1019.59 1019.51 1019.47 1019.31 1019.11 1018.99 1018.91 1018.79 1018.75 1018.75 1018.71 1018.67 1018.67 1018.63 1018.55 1018.47 1018.39 1018.31 1018.23 1018.19 1018.15 1018.11 1018.07 1018.07 1018.07 1018.07 1018.03 1017.99 1018.07 1018.07 1018.03 1017.95 1017.91 1017.79 1017.67 1017.63 1017.67 1017.67 1017.59 1017.51 1017.51 1017.55 1017.51 1017.43 1017.27 1017.27 1017.31 1017.31 1017.35
1021.95 1021.95 1021.91 1021.79 1021.75 1021.67 1021.59 1021.43 1021.23 1021.07 1020.95 1020.79 1020.67 1020.55 1020.47 1020.35 1020.23 1020.03 1019.83 1019.67 1019.55 1019.47 1019.35 1019.15 1018.95 1018.79 1018.71 1018.63 1018.55 1018.51 1018.51 1018.47 1018.47 1018.39 1018.35 1018.23 1018.07 1018.03 1017.99 1017.95 1017.91 1017.83 1017.79 1017.75 1017.79 1017.71 1017.67 1017.67 1017.71 1017.71 1017.67 1017.55 1017.51 1017.39 1017.31 1017.23 1017.23 1017.19 1017.11 1017.07 1017.11 1017.11 1017.07 1016.91 1016.79 1016.83 1016.87 1016.79 1016.79
1021.83 1021.79 1021.79 1021.71 1021.67 1021.55 1021.47 1021.39 1021.23 1021.11 1020.95 1020.79 1020.63 1020.47 1020.31 1020.19 1020.03 1019.91 1019.79 1019.67 1019.47 1019.23 1019.11 1018.99 1018.91 1018.75 1018.63 1018.51 1018.47 1018.39 1018.31 1018.27 1018.23 1018.23 1018.11 1018.03 1017.91 1017.79 1017.79 1017.79 1017.71 1017.63 1017.55 1017.51 1017.51 1017.39 1017.39 1017.39 1017.39 1017.35 1017.23 1017.11 1017.07 1016.95 1016.79 1016.75 1016.75 1016.71 1016.67 1016.59 1016.59 1016.51 1016.51 1016.39 1016.35 1016.35 1016.35 1016.27 1016.27
1021.79 1021.71 1021.67 1021.63 1021.55 1021.47 1021.39 1021.27 1021.19 1021.07 1020.91 1020.79 1020.63 1020.39 1020.23 1020.07 1019.91 1019.79 1019.67 1019.51 1019.31 1019.11 1019.03 1018.95 1018.87 1018.71 1018.51 1018.43 1018.39 1018.23 1018.15 1018.07 1018.03 1017.95 1017.91 1017.83 1017.71 1017.63 1017.55 1017.55 1017.51 1017.43 1017.39 1017.31 1017.23 1017.15 1017.15 1017.19 1017.11 1017.03 1016.95 1016.83 1016.67 1016.51 1016.39 1016.39 1016.39 1016.31 1016.23 1016.19 1016.07 1015.99 1015.95 1015.87 1015.79 1015.79 1015.79 1015.79 1015.75
1021.83 1021.71 1021.59 1021.51 1021.39 1021.35 1021.23 1021.11 1021.03 1020.95 1020.79 1020.71 1020.55 1020.35 1020.07 1019.95 1019.79 1019.67 1019.55 1019.47 1019.27 1019.11 1018.95 1018.87 1018.71 1018.59 1018.51 1018.39 1018.27 1018.15 1018.03 1017.91 1017.79 1017.75 1017.71 1017.67 1017.51 1017.43 1017.39 1017.27 1017.23 1017.19 1017.11 1016.99 1016.95 1016.91 1016.91 1016.91 1016.87 1016.75 1016.59 1016.51 1016.35 1016.15 1016.07 1016.07 1016.07 1015.95 1015.87 1015.75 1015.59 1015.55 1015.51 1015.39 1015.31 1015.35 1015.31 1015.23 1015.23
1021.71 1021.63 1021.51 1021.39 1021.31 1021.23 1021.11 1020.99 1020.91 1020.79 1020.67 1020.51 1020.35 1020.15 1019.95 1019.79 1019.71 1019.55 1019.47 1019.35 1019.19 1018.99 1018.83 1018.67 1018.55 1018.51 1018.47 1018.39 1018.23 1018.07 1017.95 1017.83 1017.67 1017.59 1017.55 1017.51 1017.39 1017.27 1017.19 1017.11 1017.03 1016.95 1016.83 1016.79 1016.75 1016.67 1016.63 1016.67 1016.63 1016.51 1016.35 1016.23 1016.07 1015.87 1015.79 1015.79 1015.79 1015.71 1015.59 1015.47 1015.31 1015.23 1015.19 1015.07 1015.03 1014.95 1014.87 1014.79 1014.75
1021.51 1021.39 1021.31 1021.23 1021.15 1021.07 1020.95 1020.87 1020.79 1020.71 1020.59 1020.39 1020.15 1019.99 1019.87 1019.71 1019.59 1019.51 1019.39 1019.23 1018.99 1018.83 1018.71 1018.59 1018.47 1018.43 1018.39 1018.27 1018.19 1018.03 1017.91 1017.75 1017.67 1017.51 1017.39 1017.35 1017.27 1017.15 1017.03 1016.95 1016.87 1016.75 1016.67 1016.59 1016.51 1016.47 1016.43 1016.43 1016.35 1016.15 1015.99 1015.91 1015.75 1015.55 1015.47 1015.51 1015.51 1015.47 1015.35 1015.23 1015.11 1014.99 1014.91 1014.87 1014.83 1014.75 1014.63 1014.51 1014.47
1021.43 1021.31 1021.19 1021.11 1020.99 1020.91 1020.83 1020.75 1020.67 1020.59 1020.47 1020.23 1019.99 1019.83 1019.71 1019.59 1019.43 1019.35 1019.23 1019.07 1018.87 1018.71 1018.63 1018.51 1018.39 1018.35 1018.23 1018.11 1017.99 1017.87 1017.79 1017.67 1017.51 1017.39 1017.27 1017.19 1017.07 1016.95 1016.83 1016.71 1016.63 1016.51 1016.39 1016.23 1016.19 1016.19 1016.15 1016.11 1015.99 1015.83 1015.67 1015.59 1015.47 1015.31 1015.23 1015.23 1015.23 1015.19 1015.07 1014.95 1014.91 1014.79 1014.67 1014.59 1014.59 1014.59 1014.51 1014.43 1014.39
1021.39 1021.27 1021.15 1021.07 1020.91 1020.79 1020.71 1020.63 1020.51 1020.39 1020.23 1020.07 1019.83 1019.67 1019.55 1019.43 1019.31 1019.23 1019.11 1018.99 1018.83 1018.67 1018.51 1018.39 1018.31 1018.23 1018.07 1017.95 1017.79 1017.67 1017.55 1017.47 1017.35 1017.23 1017.07 1016.95 1016.79 1016.67 1016.55 1016.43 1016.39 1016.23 1016.07 1015.95 1015.95 1015.95 1015.87 1015.79 1015.63 1015.47 1015.35 1015.23 1015.19 1015.11 1014.99 1014.95 1014.95 1014.91 1014.75 1014.67 1014.59 1014.51 1014.39 1014.23 1014.27 1014.31 1014.27 1014.23 1014.19
1021.35 1021.23 1021.11 1020.99 1020.87 1020.79 1020.67 1020.55 1020.39 1020.23 1020.07 1019.91 1019.71 1019.55 1019.39 1019.27 1019.19 1019.11 1018.99 1018.95 1018.79 1018.51 1018.31 1018.23 1018.15 1018.07 1017.95 1017.75 1017.59 1017.43 1017.31 1017.23 1017.11 1017.03 1016.87 1016.67 1016.51 1016.39 1016.31 1016.23 1016.15 1016.03 1015.87 1015.79 1015.75 1015.71 1015.63 1015.47 1015.35 1015.23 1015.07 1014.95 1014.95 1014.83 1014.71 1014.63 1014.63 1014.55 1014.43 1014.31 1014.23 1014.19 1014.07 1013.91 1013.87 1013.91 1013.95 1013.91 1013.87
1021.27 1021.15 1021.03 1020.87 1020.79 1020.71 1020.63 1020.47 1020.27 1020.07 1019.95 1019.79 1019.59 1019.43 1019.27 1019.11 1018.99 1018.95 1018.87 1018.75 1018.55 1018.35 1018.11 1017.99 1017.95 1017.87 1017.71 1017.55 1017.39 1017.23 1017.11 1016.99 1016.87 1016.75 1016.63 1016.47 1016.27 1016.15 1016.03 1015.95 1015.87 1015.79 1015.67 1015.59 1015.51 1015.47 1015.39 1015.19 1015.11 1014.99 1014.83 1014.67 1014.59 1014.51 1014.43 1014.35 1014.27 1014.23 1014.07 1013.99 1013.91 1013.79 1013.67 1013.55 1013.51 1013.55 1013.59 1013.55 1013.51
1021.19 1021.07 1020.95 1020.79 1020.71 1020.63 1020.51 1020.39 1020.19 1019.95 1019.79 1019.63 1019.47 1019.31 1019.15 1018.99 1018.87 1018.79 1018.67 1018.55 1018.39 1018.19 1018.03 1017.83 1017.71 1017.59 1017.47 1017.31 1017.19 1017.07 1016.95 1016.79 1016.67 1016.51 1016.39 1016.23 1016.07 1015.95 1015.79 1015.67 1015.67 1015.55 1015.47 1015.35 1015.23 1015.19 1015.11 1014.95 1014.83 1014.75 1014.63 1014.43 1014.27 1014.19 1014.11 1014.07 1013.95 1013.87 1013.75 1013.67 1013.55 1013.43 1013.27 1013.23 1013.19 1013.23 1013.27 1013.23 1013.15
1021.07 1020.95 1020.79 1020.75 1020.63 1020.51 1020.39 1020.23 1020.07 1019.87 1019.67 1019.51 1019.31 1019.23 1019.11 1018.91 1018.71 1018.63 1018.51 1018.39 1018.23 1018.07 1017.91 1017.71 1017.51 1017.35 1017.23 1017.11 1016.99 1016.87 1016.75 1016.63 1016.47 1016.31 1016.11 1015.95 1015.83 1015.71 1015.59 1015.47 1015.39 1015.31 1015.23 1015.11 1014.95 1014.87 1014.79 1014.71 1014.59 1014.51 1014.39 1014.23 1013.99 1013.87 1013.79 1013.71 1013.63 1013.51 1013.43 1013.31 1013.19 1013.03 1012.91 1012.83 1012.83 1012.91 1012.95 1012.91 1012.83
1020.95 1020.79 1020.67 1020.63 1020.51 1020.35 1020.23 1020.07 1019.91 1019.71 1019.55 1019.39 1019.19 1019.07 1018.95 1018.79 1018.63 1018.51 1018.39 1018.23 1018.07 1017.87 1017.71 1017.55 1017.39 1017.15 1016.99 1016.91 1016.79 1016.67 1016.51 1016.39 1016.23 1016.11 1015.95 1015.71 1015.55 1015.43 1015.31 1015.23 1015.11 1015.07 1014.95 1014.83 1014.71 1014.59 1014.51 1014.43 1014.35 1014.23 1014.11 1013.95 1013.79 1013.63 1013.51 1013.39 1013.27 1013.15 1013.07 1012.95 1012.79 1012.67 1012.55 1012.51 1012.51 1012.51 1012.51 1012.51 1012.51
1020.79 1020.67 1020.55 1020.43 1020.35 1020.19 1020.07 1019.91 1019.79 1019.59 1019.39 1019.23 1019.11 1018.95 1018.83 1018.67 1018.51 1018.39 1018.23 1018.07 1017.91 1017.71 1017.51 1017.39 1017.23 1017.07 1016.87 1016.67 1016.55 1016.47 1016.31 1016.11 1015.99 1015.83 1015.67 1015.47 1015.27 1015.15 1015.07 1014.95 1014.83 1014.79 1014.67 1014.59 1014.51 1014.35 1014.19 1014.11 1014.03 1013.95 1013.83 1013.67 1013.51 1013.35 1013.19 1013.07 1012.95 1012.79 1012.67 1012.55 1012.43 1012.35 1012.23 1012.15 1012.19 1012.19 1012.19 1012.19 1012.11
1020.67 1020.51 1020.39 1020.31 1020.15 1020.03 1019.91 1019.79 1019.63 1019.47 1019.31 1019.15 1018.99 1018.83 1018.71 1018.55 1018.39 1018.23 1018.11 1017.95 1017.83 1017.67 1017.39 1017.23 1017.07 1016.95 1016.75 1016.55 1016.39 1016.27 1016.15 1015.95 1015.71 1015.51 1015.39 1015.23 1015.07 1014.95 1014.79 1014.67 1014.55 1014.51 1014.43 1014.35 1014.23 1014.07 1013.95 1013.83 1013.71 1013.59 1013.51 1013.35 1013.19 1013.03 1012.87 1012.71 1012.59 1012.43 1012.27 1012.19 1012.07 1011.99 1011.95 1011.87 1011.83 1011.87 1011.87 1011.79 1011.67
1020.51 1020.39 1020.27 1020.19 1020.03 1019.91 1019.79 1019.63 1019.51 1019.35 1019.23 1019.07 1018.91 1018.75 1018.59 1018.47 1018.35 1018.19 1017.95 1017.79 1017.67 1017.51 1017.31 1017.11 1016.87 1016.71 1016.55 1016.39 1016.23 1016.03 1015.91 1015.75 1015.51 1015.31 1015.11 1014.99 1014.83 1014.67 1014.51 1014.39 1014.31 1014.23 1014.15 1014.07 1013.95 1013.79 1013.67 1013.55 1013.39 1013.27 1013.15 1012.99 1012.79 1012.67 1012.51 1012.39 1012.23 1012.07 1011.91 1011.79 1011.75 1011.67 1011.63 1011.55 1011.55 1011.55 1011.51 1011.43 1011.35
1020.47 1020.39 1020.23 1020.07 1019.95 1019.79 1019.67 1019.55 1019.39 1019.23 1019.11 1018.95 1018.79 1018.63 1018.47 1018.31 1018.19 1018.03 1017.83 1017.63 1017.47 1017.31 1017.15 1016.99 1016.75 1016.51 1016.35 1016.15 1015.99 1015.79 1015.67 1015.51 1015.31 1015.11 1014.87 1014.71 1014.59 1014.43 1014.27 1014.15 1014.07 1013.95 1013.91 1013.79 1013.67 1013.51 1013.39 1013.23 1013.11 1012.95 1012.79 1012.63 1012.47 1012.27 1012.11 1011.95 1011.83 1011.67 1011.55 1011.51 1011.43 1011.35 1011.27 1011.23 1011.23 1011.23 1011.15 1011.11 1011.03
1020.39 1020.23 1020.11 1019.99 1019.87 1019.75 1019.59 1019.43 1019.31 1019.15 1018.99 1018.87 1018.71 1018.51 1018.35 1018.19 1017.99 1017.83 1017.67 1017.51 1017.27 1017.11 1016.99 1016.79 1016.59 1016.35 1016.11 1015.95 1015.75 1015.55 1015.39 1015.23 1015.07 1014.87 1014.67 1014.43 1014.31 1014.19 1014.07 1013.95 1013.83 1013.67 1013.59 1013.51 1013.39 1013.23 1013.11 1012.95 1012.79 1012.63 1012.43 1012.27 1012.11 1011.95 1011.79 1011.67 1011.51 1011.35 1011.23 1011.15 1011.03 1010.95 1010.91 1010.87 1010.83 1010.79 1010.79 1010.71 1010.67
1020.23 1020.15 1020.03 1019.91 1019.75 1019.67 1019.51 1019.35 1019.23 1019.07 1018.87 1018.71 1018.55 1018.39 1018.19 1017.99 1017.83 1017.67 1017.47 1017.31 1017.11 1016.95 1016.79 1016.63 1016.39 1016.19 1015.95 1015.75 1015.55 1015.35 1015.11 1014.95 1014.79 1014.67 1014.47 1014.23 1014.03 1013.87 1013.79 1013.71 1013.59 1013.47 1013.31 1013.23 1013.11 1012.95 1012.79 1012.67 1012.47 1012.31 1012.15 1011.95 1011.79 1011.63 1011.47 1011.31 1011.15 1010.95 1010.79 1010.71 1010.63 1010.51 1010.47 1010.43 1010.39 1010.39 1010.35 1010.27 1010.23
1020.15 1020.03 1019.91 1019.79 1019.63 1019.51 1019.39 1019.23 1019.07 1018.95 1018.75 1018.55 1018.35 1018.19 1017.99 1017.79 1017.63 1017.43 1017.27 1017.11 1016.95 1016.79 1016.59 1016.39 1016.23 1015.99 1015.79 1015.55 1015.39 1015.19 1014.95 1014.75 1014.55 1014.39 1014.23 1014.07 1013.83 1013.63 1013.51 1013.47 1013.39 1013.23 1013.07 1012.91 1012.79 1012.67 1012.51 1012.31 1012.11 1011.95 1011.79 1011.63 1011.39 1011.23 1011.07 1010.95 1010.79 1010.63 1010.47 1010.35 1010.23 1010.11 1010.07 1009.99 1009.95 1009.95 1009.87 1009.79 1009.75
1020.07 1019.95 1019.79 1019.67 1019.51 1019.39 1019.23 1019.11 1018.95 1018.75 1018.55 1018.39 1018.19 1017.99 1017.79 1017.63 1017.43 1017.23 1017.07 1016.87 1016.71 1016.55 1016.39 1016.19 1015.99 1015.79 1015.59 1015.39 1015.19 1014.99 1014.79 1014.55 1014.35 1014.07 1013.91 1013.79 1013.63 1013.43 1013.27 1013.15 1013.07 1012.91 1012.75 1012.63 1012.51 1012.39 1012.23 1011.99 1011.75 1011.51 1011.31 1011.15 1010.95 1010.79 1010.63 1010.47 1010.35 1010.23 1010.07 1009.95 1009.79 1009.67 1009.59 1009.51 1009.51 1009.47 1009.43 1009.39 1009.31
1019.95 1019.79 1019.67 1019.51 1019.39 1019.23 1019.11 1018.95 1018.75 1018.59 1018.39 1018.23 1018.03 1017.83 1017.67 1017.47 1017.27 1017.11 1016.87 1016.67 1016.51 1016.35 1016.19 1015.99 1015.79 1015.59 1015.39 1015.19 1014.95 1014.75 1014.59 1014.39 1014.15 1013.91 1013.67 1013.47 1013.31 1013.19 1013.07 1012.91 1012.75 1012.59 1012.47 1012.35 1012.19 1011.95 1011.79 1011.59 1011.39 1011.11 1010.87 1010.67 1010.39 1010.23 1010.07 1009.95 1009.83 1009.71 1009.63 1009.51 1009.39 1009.23 1009.11 1009.03 1008.95 1008.95 1008.91 1008.87 1008.79
1019.87 1019.71 1019.55 1019.39 1019.23 1019.11 1018.95 1018.79 1018.63 1018.43 1018.23 1018.03 1017.83 1017.67 1017.51 1017.31 1017.11 1016.91 1016.71 1016.51 1016.35 1016.11 1015.95 1015.79 1015.59 1015.39 1015.15 1014.95 1014.67 1014.51 1014.31 1014.19 1013.99 1013.79 1013.51 1013.23 1013.07 1012.91 1012.79 1012.67 1012.51 1012.35 1012.23 1012.07 1011.87 1011.63 1011.39 1011.19 1010.95 1010.71 1010.51 1010.23 1009.99 1009.79 1009.59 1009.39 1009.31 1009.23 1009.19 1009.11 1008.95 1008.83 1008.71 1008.59 1008.47 1008.39 1008.39 1008.27 1008.23
1019.75 1019.59 1019.39 1019.23 1019.11 1018.95 1018.79 1018.59 1018.43 1018.23 1018.07 1017.87 1017.67 1017.51 1017.31 1017.15 1016.95 1016.79 1016.55 1016.35 1016.15 1015.95 1015.79 1015.59 1015.39 1015.19 1014.95 1014.67 1014.47 1014.27 1014.11 1013.95 1013.79 1013.63 1013.39 1013.15 1012.95 1012.71 1012.51 1012.39 1012.19 1012.07 1011.95 1011.79 1011.51 1011.27 1011.03 1010.79 1010.55 1010.35 1010.15 1009.95 1009.67 1009.47 1009.23 1009.03 1008.87 1008.79 1008.71 1008.63 1008.51 1008.39 1008.27 1008.11 1007.95 1007.83 1007.79 1007.67 1007.59
1019.63 1019.43 1019.27 1019.11 1018.95 1018.79 1018.59 1018.43 1018.27 1018.07 1017.91 1017.71 1017.51 1017.39 1017.19 1016.99 1016.79 1016.63 1016.43 1016.19 1015.95 1015.79 1015.59 1015.39 1015.19 1014.99 1014.75 1014.51 1014.23 1014.07 1013.91 1013.75 1013.55 1013.39 1013.19 1012.95 1012.75 1012.51 1012.31 1012.07 1011.95 1011.79 1011.67 1011.43 1011.19 1010.95 1010.67 1010.43 1010.23 1009.99 1009.79 1009.59 1009.39 1009.19 1008.95 1008.75 1008.55 1008.39 1008.27 1008.15 1007.99 1007.87 1007.71 1007.63 1007.43 1007.31 1007.19 1007.03 1006.91
1019.51 1019.35 1019.15 1018.99 1018.79 1018.63 1018.43 1018.31 1018.15 1017.95 1017.75 1017.59 1017.39 1017.19 1016.99 1016.79 1016.67 1016.43 1016.23 1016.03 1015.79 1015.63 1015.39 1015.19 1014.95 1014.75 1014.59 1014.39 1014.07 1013.91 1013.71 1013.51 1013.39 1013.19 1012.95 1012.67 1012.47 1012.23 1012.07 1011.87 1011.67 1011.47 1011.27 1011.11 1010.87 1010.63 1010.39 1010.15 1009.91 1009.67 1009.51 1009.31 1009.11 1008.83 1008.59 1008.39 1008.23 1008.07 1007.87 1007.71 1007.55 1007.39 1007.23 1007.11 1006.99 1006.83 1006.67 1006.51 1006.39
1019.39 1019.23 1019.07 1018.87 1018.67 1018.51 1018.31 1018.15 1017.95 1017.79 1017.63 1017.43 1017.23 1017.03 1016.83 1016.67 1016.47 1016.27 1016.07 1015.87 1015.67 1015.47 1015.27 1015.11 1014.79 1014.55 1014.39 1014.19 1013.95 1013.75 1013.51 1013.27 1013.11 1012.95 1012.71 1012.51 1012.23 1011.95 1011.75 1011.55 1011.39 1011.23 1011.03 1010.83 1010.59 1010.35 1010.07 1009.83 1009.59 1009.39 1009.15 1008.91 1008.71 1008.51 1008.31 1008.11 1007.95 1007.79 1007.55 1007.39 1007.23 1007.07 1006.95 1006.79 1006.63 1006.39 1006.23 1006.07 1006.03
1019.23 1019.11 1018.95 1018.71 1018.51 1018.35 1018.15 1017.95 1017.79 1017.63 1017.43 1017.23 1017.07 1016.87 1016.67 1016.47 1016.27 1016.07 1015.91 1015.67 1015.47 1015.23 1015.03 1014.87 1014.67 1014.43 1014.19 1013.95 1013.79 1013.51 1013.27 1013.03 1012.87 1012.67 1012.51 1012.23 1011.95 1011.67 1011.47 1011.27 1011.11 1010.95 1010.79 1010.55 1010.31 1010.07 1009.79 1009.51 1009.27 1009.03 1008.79 1008.59 1008.35 1008.15 1007.99 1007.79 1007.67 1007.47 1007.27 1007.07 1006.91 1006.79 1006.63 1006.43 1006.23 1006.03 1005.87 1005.79 1005.71
1019.11 1018.95 1018.79 1018.59 1018.39 1018.19 1017.99 1017.79 1017.67 1017.47 1017.27 1017.11 1016.87 1016.67 1016.47 1016.27 1016.07 1015.91 1015.71 1015.51 1015.27 1015.03 1014.79 1014.59 1014.39 1014.15 1013.91 1013.67 1013.51 1013.27 1013.07 1012.83 1012.63 1012.43 1012.23 1012.03 1011.75 1011.47 1011.23 1011.03 1010.83 1010.67 1010.43 1010.23 1009.95 1009.71 1009.43 1009.19 1008.91 1008.67 1008.43 1008.23 1008.03 1007.83 1007.67 1007.47 1007.27 1007.11 1006.87 1006.67 1006.51 1006.39 1006.23 1006.03 1005.83 1005.67 1005.55 1005.47 1005.35
1018.99 1018.83 1018.67 1018.51 1018.27 1018.03 1017.83 1017.67 1017.47 1017.27 1017.11 1016.87 1016.67 1016.51 1016.27 1016.07 1015.83 1015.67 1015.51 1015.35 1015.11 1014.87 1014.59 1014.35 1014.11 1013.91 1013.67 1013.43 1013.23 1012.95 1012.79 1012.59 1012.43 1012.23 1011.99 1011.79 1011.55 1011.27 1010.99 1010.79 1010.55 1010.35 1010.11 1009.87 1009.63 1009.35 1009.11 1008.83 1008.59 1008.35 1008.07 1007.87 1007.67 1007.51 1007.31 1007.11 1006.91 1006.71 1006.51 1006.27 1006.11 1005.95 1005.83 1005.67 1005.51 1005.39 1005.23 1005.19 1005.11
1018.87 1018.71 1018.55 1018.39 1018.11 1017.91 1017.67 1017.47 1017.27 1017.11 1016.87 1016.63 1016.43 1016.27 1016.07 1015.91 1015.67 1015.47 1015.23 1015.07 1014.87 1014.67 1014.39 1014.19 1013.95 1013.75 1013.51 1013.27 1013.11 1012.79 1012.51 1012.31 1012.15 1011.95 1011.75 1011.51 1011.31 1011.03 1010.75 1010.51 1010.23 1010.03 1009.79 1009.55 1009.27 1008.99 1008.75 1008.51 1008.23 1007.99 1007.75 1007.51 1007.39 1007.19 1006.99 1006.79 1006.63 1006.43 1006.23 1006.07 1005.91 1005.71 1005.59 1005.47 1005.31 1005.15 1005.03 1004.95 1004.83
1018.79 1018.63 1018.39 1018.15 1017.95 1017.71 1017.51 1017.23 1017.07 1016.87 1016.67 1016.47 1016.23 1015.99 1015.83 1015.71 1015.51 1015.31 1015.07 1014.79 1014.55 1014.35 1014.11 1013.95 1013.75 1013.51 1013.35 1013.11 1012.95 1012.71 1012.39 1012.11 1011.91 1011.67 1011.51 1011.27 1011.03 1010.75 1010.43 1010.11 1009.87 1009.67 1009.51 1009.23 1008.95 1008.67 1008.39 1008.11 1007.91 1007.67 1007.43 1007.23 1007.11 1006.95 1006.79 1006.63 1006.43 1006.23 1006.07 1005.91 1005.75 1005.59 1005.43 1005.27 1005.11 1004.95 1004.79 1004.67 1004.55
1018.67 1018.47 1018.23 1017.99 1017.79 1017.51 1017.31 1017.11 1016.91 1016.67 1016.51 1016.27 1016.03 1015.79 1015.59 1015.39 1015.23 1015.07 1014.87 1014.63 1014.35 1014.07 1013.83 1013.63 1013.43 1013.27 1013.07 1012.83 1012.63 1012.47 1012.23 1011.99 1011.67 1011.43 1011.23 1010.99 1010.71 1010.39 1010.07 1009.75 1009.51 1009.27 1009.11 1008.91 1008.63 1008.35 1008.07 1007.83 1007.63 1007.43 1007.23 1007.07 1006.91 1006.75 1006.59 1006.43 1006.23 1006.07 1005.83 1005.63 1005.47 1005.27 1005.11 1004.95 1004.79 1004.63 1004.47 1004.35 1004.23
1018.51 1018.35 1018.11 1017.83 1017.63 1017.39 1017.19 1016.95 1016.79 1016.51 1016.31 1016.07 1015.87 1015.67 1015.43 1015.19 1014.95 1014.75 1014.63 1014.47 1014.15 1013.79 1013.55 1013.39 1013.19 1013.03 1012.79 1012.63 1012.39 1012.15 1011.95 1011.79 1011.51 1011.19 1010.91 1010.63 1010.39 1010.07 1009.71 1009.39 1009.11 1008.95 1008.71 1008.51 1008.31 1008.07 1007.79 1007.55 1007.39 1007.23 1007.03 1006.87 1006.67 1006.51 1006.35 1006.19 1005.95 1005.75 1005.51 1005.35 1005.15 1004.95 1004.75 1004.63 1004.43 1004.23 1004.11 1003.99 1003.91
1018.31 1018.15 1017.95 1017.75 1017.47 1017.23 1017.03 1016.83 1016.67 1016.39 1016.15 1015.91 1015.67 1015.51 1015.27 1015.07 1014.79 1014.51 1014.39 1014.23 1013.95 1013.67 1013.31 1013.11 1012.95 1012.79 1012.59 1012.39 1012.15 1011.87 1011.67 1011.51 1011.27 1010.95 1010.67 1010.35 1010.07 1009.83 1009.51 1009.11 1008.79 1008.59 1008.39 1008.23 1008.03 1007.79 1007.59 1007.39 1007.15 1006.99 1006.79 1006.67 1006.43 1006.23 1006.03 1005.83 1005.67 1005.39 1005.23 1004.99 1004.79 1004.59 1004.43 1004.23 1004.07 1003.87 1003.71 1003.63 1003.51
1018.07 1017.95 1017.83 1017.63 1017.39 1017.11 1016.91 1016.71 1016.51 1016.31 1016.07 1015.75 1015.51 1015.27 1015.11 1014.87 1014.63 1014.39 1014.15 1013.99 1013.79 1013.55 1013.23 1012.95 1012.75 1012.55 1012.39 1012.15 1011.91 1011.59 1011.31 1011.11 1010.95 1010.75 1010.43 1010.07 1009.83 1009.55 1009.27 1008.91 1008.55 1008.31 1008.15 1007.99 1007.79 1007.59 1007.39 1007.19 1006.95 1006.71 1006.51 1006.35 1006.15 1005.95 1005.75 1005.55 1005.31 1005.07 1004.83 1004.67 1004.43 1004.23 1004.03 1003.87 1003.67 1003.51 1003.35 1003.23 1003.19
1017.95 1017.79 1017.67 1017.51 1017.27 1017.03 1016.79 1016.51 1016.35 1016.15 1015.95 1015.67 1015.39 1015.11 1014.91 1014.67 1014.43 1014.19 1013.95 1013.79 1013.63 1013.43 1013.19 1012.87 1012.59 1012.35 1012.15 1011.95 1011.63 1011.27 1010.95 1010.75 1010.63 1010.47 1010.23 1009.91 1009.59 1009.31 1008.99 1008.67 1008.35 1008.07 1007.91 1007.79 1007.59 1007.39 1007.15 1006.95 1006.67 1006.43 1006.23 1006.07 1005.87 1005.67 1005.43 1005.23 1004.95 1004.71 1004.51 1004.31 1004.11 1003.91 1003.67 1003.51 1003.39 1003.23 1003.11 1002.95 1002.87
1017.79 1017.63 1017.47 1017.31 1017.11 1016.91 1016.67 1016.39 1016.11 1015.91 1015.75 1015.55 1015.31 1015.03 1014.75 1014.51 1014.23 1013.99 1013.79 1013.63 1013.43 1013.23 1013.03 1012.71 1012.39 1012.07 1011.87 1011.67 1011.39 1011.07 1010.75 1010.47 1010.27 1010.11 1009.95 1009.67 1009.35 1009.03 1008.75 1008.47 1008.15 1007.91 1007.67 1007.51 1007.39 1007.15 1006.91 1006.67 1006.39 1006.15 1005.91 1005.71 1005.51 1005.31 1005.11 1004.87 1004.67 1004.39 1004.19 1003.99 1003.83 1003.67 1003.43 1003.23 1003.07 1002.95 1002.79 1002.67 1002.59
Wind_Speed
4 4 4 5 5 5 5 6 6 6 6 6 7 7 6 6 6 7 6 6 6 6 7 7 7 8 9 10 9 8 8 8 9 10 11 12 12 12 12 12 12 12 13 13 13 12 12 12 11 9 8 9 10 11 11 10 12 12 13 13 13 13 15 16 17 18 19 19 16
4 4 4 5 5 5 5 5 6 6 6 5 6 6 6 6 6 7 7 7 6 6 7 7 8 9 10 11 10 9 9 9 9 10 11 12 12 12 12 12 12 13 13 14 13 12 11 11 10 9 8 8 9 11 11 11 12 13 14 16 14 13 13 14 16 17 19 19 17
4 4 4 4 4 4 5 5 6 6 7 7 6 6 6 6 6 7 7 7 7 7 7 7 8 9 10 11 10 9 9 9 10 10 10 11 12 12 12 12 13 13 14 13 13 12 11 11 10 9 9 8 10 11 11 12 13 13 14 16 13 12 11 12 14 15 15 14 16
5 4 4 4 5 5 5 5 6 7 7 7 6 6 6 6 6 6 7 7 8 7 7 8 8 9 9 10 10 9 9 9 10 10 11 11 12 12 13 12 13 13 13 13 13 14 13 13 10 9 9 11 12 12 11 11 12 13 13 13 12 11 12 11 12 12 12 12 14
6 5 5 5 6 6 6 5 7 7 7 6 6 6 6 5 5 6 6 6 7 7 8 8 8 8 9 10 10 10 10 10 10 10 11 11 12 12 12 12 13 13 13 13 14 14 14 13 10 9 9 11 11 11 12 13 13 13 12 10 11 11 11 12 12 11 11 11 12
7 7 6 5 6 6 5 5 6 7 6 6 6 7 7 6 5 5 6 7 8 9 9 9 9 9 10 10 10 10 10 10 10 10 10 11 11 12 12 12 13 13 12 13 13 14 14 13 9 9 9 10 10 12 13 14 14 13 12 11 11 11 11 13 12 11 12 13 14
7 7 7 6 6 6 6 6 6 6 6 6 7 8 8 7 7 8 8 8 8 8 9 8 8 9 9 10 10 10 10 10 10 10 10 10 11 12 12 12 12 13 13 13 13 13 12 11 9 9 9 9 9 11 13 14 13 13 13 13 12 11 11 13 12 11 13 16 18
6 6 6 6 6 6 7 7 6 6 6 5 7 8 9 9 9 9 9 8 8 8 8 7 8 9 9 10 10 11 11 11 11 10 10 10 11 12 12 12 12 13 13 13 12 12 11 9 8 8 9 9 9 10 12 14 14 14 15 15 13 12 11 11 11 12 14 17 19
6 6 7 7 6 6 7 7 6 6 6 7 8 9 9 9 9 9 9 8 8 8 8 8 9 9 10 10 11 11 11 11 11 11 11 11 11 12 12 12 12 12 12 12 12 12 11 9 8 9 9 9 9 10 11 13 14 15 15 15 14 13 13 12 12 13 15 16 17
8 8 8 8 8 8 7 7 7 7 7 9 9 10 9 9 9 8 8 7 8 8 9 9 9 10 10 11 11 11 10 10 11 11 11 11 12 12 12 11 12 12 12 11 11 11 11 9 9 10 11 10 12 13 13 13 14 15 15 13 13 15 16 15 15 15 16 15 15
8 8 8 8 9 9 8 8 7 7 7 8 9 9 9 9 9 8 8 7 8 9 10 10 9 9 10 10 10 10 10 10 10 11 11 12 13 13 13 12 12 13 13 13 11 10 10 9 11 12 13 12 13 13 14 14 14 15 15 14 15 16 17 17 16 15 15 15 15
8 9 8 8 8 8 8 8 8 8 8 9 9 9 9 9 8 8 8 8 9 10 10 10 9 9 9 9 10 10 10 10 11 11 12 13 13 13 13 13 13 13 14 14 12 11 10 10 12 13 15 15 13 12 13 14 15 15 16 16 17 17 17 18 17 15 14 14 15
8 8 9 9 8 8 8 8 8 8 8 9 9 9 9 9 9 8 8 9 9 10 10 9 9 9 9 9 10 10 10 11 11 11 12 13 13 14 13 13 12 13 13 13 12 11 11 12 13 14 15 16 14 13 14 15 15 15 16 17 17 18 18 18 17 16 15 15 16
8 8 8 9 8 8 8 8 8 8 8 9 9 9 9 9 9 8 8 9 10 10 10 10 9 9 9 10 10 10 11 11 12 12 13 13 14 14 13 12 12 12 12 12 12 12 12 12 13 14 15 16 16 16 15 15 15 15 16 17 17 18 18 18 17 16 16 16 17
9 9 9 8 8 8 8 8 7 7 8 9 9 9 9 9 9 9 9 9 10 10 10 9 9 10 10 10 10 11 11 11 12 13 13 14 14 14 13 12 12 12 12 12 12 12 13 13 13 14 15 16 16 17 16 16 16 15 16 16 17 18 18 18 17 16 16 16 17
9 9 9 9 9 9 8 8 7 8 8 9 10 9 9 9 9 9 10 10 10 10 10 10 11 11 11 11 11 11 11 12 12 13 13 14 14 14 14 13 12 12 12 13 13 13 13 12 13 13 14 15 16 16 16 16 16 16 16 17 17 18 18 18 17 16 16 16 17
10 10 10 9 10 10 10 9 8 9 9 10 11 10 10 10 9 10 11 11 11 11 11 12 12 11 12 12 12 11 11 12 12 13 13 14 14 14 13 13 12 12 12 12 13 13 13 13 13 13 14 15 15 16 16 16 16 16 17 17 17 17 17 17 16 16 16 16 17
11 10 10 10 10 11 11 11 10 11 11 12 12 11 11 11 11 11 11 12 12 12 13 14 13 12 12 13 12 11 11 12 13 13 14 14 14 14 14 14 13 12 12 12 13 13 14 14 14 14 14 14 15 15 15 16 16 16 17 17 17 17 16 16 16 15 15 16 17
11 11 11 11 11 11 11 12 12 12 12 12 12 12 12 12 12 12 12 12 12 13 14 14 14 13 13 14 13 13 12 12 14 14 15 15 14 14 14 14 13 12 12 12 13 13 14 14 14 15 15 15 15 15 15 16 16 16 16 16 16 16 15 15 15 15 15 16 17
11 11 11 11 11 11 12 12 12 12 12 12 12 13 13 13 13 13 13 13 13 13 13 14 14 14 14 14 14 14 13 12 14 15 15 15 14 14 14 14 13 13 12 12 12 13 13 14 15 15 15 16 16 16 16 16 16 16 15 15 15 15 15 15 15 16 16 17 17
11 11 11 11 11 11 12 12 12 12 12 12 13 13 13 13 13 13 13 14 14 14 14 14 14 15 15 15 15 15 14 13 14 15 15 15 15 14 14 13 13 13 12 12 12 13 13 14 15 15 15 15 16 16 16 16 16 16 15 15 15 15 15 16 16 16 16 17 17
11 11 11 11 11 11 12 12 12 12 12 13 13 13 13 13 13 13 14 14 14 14 14 14 15 15 15 15 15 16 15 14 14 15 15 15 15 14 14 13 12 12 13 12 12 13 13 14 15 15 15 15 15 15 16 16 16 16 17 16 16 16 16 16 16 17 17 17 17
11 11 11 10 11 11 12 12 12 12 12 13 13 13 13 13 14 14 14 14 14 14 14 14 14 15 15 15 15 16 16 16 16 16 16 16 15 15 14 13 12 12 13 12 12 12 12 13 13 14 14 14 15 15 16 16 16 16 16 17 17 17 17 16 17 17 17 17 17
11 11 11 10 11 11 12 12 12 12 13 13 13 13 14 14 14 14 14 14 14 14 14 13 13 14 15 15 15 15 15 16 17 17 17 16 16 15 14 12 12 12 11 10 11 12 13 12 12 12 12 12 13 14 15 15 15 15 15 16 17 17 17 17 17 16 17 17 17
12 12 11 11 11 12 12 12 12 12 13 13 13 14 14 14 14 14 14 14 15 15 15 15 14 14 15 15 15 15 15 15 16 16 17 17 16 16 14 13 12 10 9 9 14 18 20 19 16 13 12 12 12 13 13 13 14 14 15 15 16 16 17 17 17 17 17 17 17
12 12 12 12 12 12 12 12 12 13 13 13 14 14 14 14 14 14 14 15 15 15 15 15 15 14 15 14 15 15 14 14 14 15 16 17 17 17 15 14 12 10 9 11 17 21 24 26 24 21 17 14 13 12 12 12 12 13 14 15 15 15 16 16 17 17 17 17 17
12 12 12 12 12 12 13 12 13 13 13 14 14 14 14 14 14 14 15 15 15 15 15 14 14 14 14 14 14 14 14 13 14 15 16 16 17 17 17 15 12 10 10 14 20 24 26 27 27 26 23 18 15 13 12 12 12 12 12 13 14 14 15 16 17 17 18 18 18
12 12 12 12 13 13 13 13 13 13 14 14 14 14 14 15 15 15 15 15 15 15 14 13 13 12 12 12 13 14 15 15 15 15 15 16 17 17 17 15 13 12 13 18 23 26 27 28 28 28 26 22 17 13 12 12 12 12 12 12 13 14 15 15 16 17 18 19 18
12 12 12 13 13 13 13 13 14 14 14 15 15 15 15 15 15 15 15 15 15 15 13 12 11 11 11 12 14 15 16 16 15 15 15 16 17 17 17 17 16 16 18 23 26 27 28 28 28 28 28 26 19 14 11 11 11 11 12 11 11 12 13 14 15 16 16 16 15
12 12 12 13 13 14 14 14 14 14 14 14 14 15 15 15 15 15 15 15 15 15 14 13 12 13 14 15 15 16 16 16 15 15 15 16 17 18 18 18 16 16 18 23 26 27 28 28 28 28 28 27 22 16 12 10 11 11 11 11 12 13 14 15 17 17 15 13 11
12 12 12 13 14 14 14 14 14 14 14 14 14 15 15 15 15 15 15 15 15 15 15 15 15 16 17 16 16 16 16 16 15 15 16 17 18 19 19 19 18 17 19 23 26 27 28 28 28 27 27 27 23 17 12 11 12 12 12 12 13 15 16 16 16 15 14 12 11
12 12 12 13 14 14 14 14 14 15 15 15 15 15 15 15 15 15 15 15 15 16 16 16 17 17 17 17 17 17 17 16 16 16 16 17 18 19 19 19 18 18 19 23 26 27 27 27 27 27 28 28 23 18 14 12 13 13 13 15 16 17 17 16 14 13 13 13 14
12 12 12 13 14 14 14 14 15 15 15 15 15 15 15 15 15 15 14 14 15 15 16 17 17 17 17 17 17 17 17 17 17 18 18 18 19 19 20 19 17 18 20 24 26 27 27 28 28 28 28 28 23 18 14 13 12 11 12 13 14 15 15 15 13 13 14 15 15
11 12 12 13 14 14 15 15 15 15 15 16 16 15 15 15 15 15 15 14 14 15 15 15 16 16 16 16 16 17 17 17 17 18 18 19 19 20 20 18 15 17 20 25 27 27 28 28 28 28 28 27 21 15 13 13 11 11 11 12 12 12 12 12 14 15 15 16 15
11 12 12 13 14 14 15 15 16 16 16 16 16 16 15 15 15 15 15 16 16 16 15 15 15 15 15 15 15 16 17 18 18 19 19 19 19 20 20 19 17 19 22 26 27 27 27 27 27 27 27 24 17 12 11 12 12 12 12 13 13 13 13 14 14 15 16 16 16
11 11 13 14 15 15 16 16 16 16 16 16 17 16 16 16 15 15 15 16 16 16 16 15 15 15 15 16 16 16 17 18 19 19 19 19 20 20 21 20 20 21 23 25 26 26 27 27 27 27 25 20 14 11 10 10 11 12 14 15 16 16 16 16 15 15 15 15 15
10 12 13 14 15 16 16 16 17 17 17 17 17 17 17 17 16 15 15 15 15 16 16 15 16 16 17 17 17 17 17 18 18 19 19 19 20 20 21 21 20 20 22 23 25 26 26 27 27 27 24 18 13 11 11 10 10 12 13 15 15 16 16 15 15 15 14 14 14
11 12 13 14 15 16 16 16 17 17 18 18 17 17 16 16 16 15 15 14 15 16 16 16 17 17 17 18 18 18 18 18 18 19 19 20 19 20 20 21 20 20 20 22 24 26 27 27 27 27 24 17 14 12 11 10 10 11 12 12 13 14 14 13 13 13 13 14 15
12 12 13 14 15 16 16 17 17 17 18 18 18 17 17 16 15 15 15 14 14 15 16 17 18 18 18 18 18 18 19 18 18 18 19 19 19 20 21 21 21 20 20 22 24 26 27 27 27 27 25 19 15 12 10 10 11 12 12 12 12 13 13 13 12 11 11 13 16
12 13 13 14 14 15 16 17 17 17 17 17 17 18 17 17 16 16 15 14 15 15 16 17 18 18 18 18 18 19 19 19 18 18 19 19 20 22 22 22 21 20 20 22 24 26 27 27 27 27 25 18 14 11 10 9 10 11 11 11 10 11 11 11 10 10 10 11 13
12 12 13 14 14 15 16 17 17 17 16 16 17 17 16 16 16 16 15 15 15 16 15 16 17 18 18 18 17 18 19 20 19 19 19 20 21 21 21 20 20 19 20 20 23 25 26 27 27 27 25 19 14 11 9 9 9 10 11 11 10 10 9 10 9 9 9 10 10
Wind_Direction
281 283 285 287 286 283 281 281 279 277 274 273 275 277 277 277 277 277 277 275 274 276 278 279 279 280 281 280 274 267 260 255 249 247 247 247 247 246 244 242 241 240 241 242 241 241 240 238 236 236 236 236 238 238 238 237 236 236 236 235 237 238 238 238 239 239 238 237 237
294 291 291 294 296 296 293 291 287 285 283 280 279 280 282 281 279 280 280 278 275 276 278 281 280 280 280 279 275 269 264 260 254 251 250 250 250 248 247 245 242 240 239 240 240 240 240 237 235 235 236 236 237 238 238 236 235 236 237 236 237 238 238 238 239 239 239 238 237
305 305 302 299 302 302 300 298 295 294 293 290 288 286 285 282 280 279 279 279 280 280 280 280 280 279 278 278 274 269 264 261 257 255 253 252 251 249 247 245 244 242 240 240 239 238 238 237 235 234 235 235 235 237 238 237 234 235 237 236 236 236 237 238 238 238 238 237 235
312 310 308 305 301 298 297 296 298 299 298 296 293 289 284 279 277 277 279 282 283 280 277 276 279 281 280 279 276 272 267 263 260 258 257 256 254 251 248 246 245 244 242 241 240 240 239 237 236 235 235 236 236 236 237 236 233 233 234 234 234 234 234 236 236 235 235 236 234
317 314 309 305 299 296 293 290 292 294 295 296 296 292 287 281 278 279 281 283 281 280 280 283 284 285 284 281 279 276 273 268 265 262 261 260 258 256 253 249 248 247 246 243 242 241 240 237 237 237 237 237 236 236 236 236 235 234 234 233 232 231 231 233 233 233 233 234 232
315 313 309 302 296 292 289 286 283 284 287 291 291 290 289 287 285 284 284 284 285 287 289 288 285 284 283 282 279 277 275 272 267 264 262 262 262 260 258 253 250 249 248 246 244 243 241 238 239 239 239 239 240 240 239 237 237 237 236 235 233 231 231 232 231 231 231 233 233
304 305 304 301 297 294 291 289 286 284 284 285 283 283 284 286 288 287 286 286 288 289 289 287 284 284 285 286 284 281 279 276 272 267 263 262 263 262 260 257 253 251 249 248 247 245 242 238 241 243 243 242 244 243 241 239 239 239 239 239 237 234 233 234 232 231 231 233 233
299 298 298 298 296 294 292 291 291 291 289 285 282 281 282 284 285 286 287 288 286 284 284 284 284 284 284 285 284 283 281 281 279 275 271 267 266 265 263 260 258 255 252 250 249 248 246 242 243 246 247 246 247 246 244 241 241 242 243 243 244 241 237 235 234 233 233 233 232
314 310 308 305 301 297 294 292 290 288 287 286 283 282 282 283 282 283 284 284 283 283 284 285 285 285 284 282 281 280 281 281 281 280 278 274 271 268 266 264 261 259 257 254 252 251 250 249 249 249 250 249 250 251 249 245 243 243 244 246 248 247 245 242 239 238 238 237 236
319 318 317 314 311 307 303 300 292 285 282 283 284 284 283 283 282 281 281 281 286 287 287 285 287 287 285 282 280 279 279 279 279 279 277 275 271 269 267 265 264 263 263 262 259 257 254 252 253 253 253 252 254 255 254 250 247 246 246 247 248 249 249 247 244 243 243 242 241
313 313 313 311 310 310 309 307 300 293 288 286 287 288 287 287 285 284 283 284 287 286 285 285 286 286 285 283 282 281 279 277 276 276 275 274 272 270 269 267 267 267 268 269 269 267 264 260 259 259 258 257 256 257 257 254 251 249 249 249 249 249 250 249 246 245 244 245 244
307 307 306 305 305 307 307 306 303 300 296 293 292 292 292 290 288 286 286 285 284 284 284 285 284 283 282 282 283 282 281 279 277 276 275 275 274 272 271 269 268 268 270 271 271 270 268 265 264 263 262 261 260 259 259 257 254 251 250 250 250 249 249 249 246 244 243 243 243
303 303 303 303 304 305 304 302 301 300 298 296 296 296 296 295 293 291 290 286 285 287 289 290 286 283 281 281 282 282 282 281 279 277 276 276 275 275 273 271 269 269 270 271 270 269 267 265 264 264 264 264 263 261 260 259 256 254 252 252 251 250 249 249 247 245 243 242 242
301 301 301 302 303 303 302 301 300 299 298 297 297 298 298 298 298 296 293 290 289 291 292 293 290 286 283 282 281 281 281 280 280 279 277 277 276 276 275 273 270 269 270 271 269 267 264 263 262 262 263 264 264 263 261 260 258 256 254 253 252 251 250 249 248 246 244 242 243
302 301 301 302 303 303 302 301 300 299 299 299 300 301 302 302 302 301 299 295 293 292 293 293 292 291 288 285 283 282 280 280 280 279 278 277 276 275 274 272 270 268 268 269 269 266 263 261 262 262 262 263 264 263 263 261 258 256 254 253 252 252 251 250 248 246 244 242 243
304 305 305 306 306 305 304 303 302 302 302 302 304 305 305 304 304 304 302 300 298 296 296 295 295 295 294 291 287 285 283 281 280 279 278 277 277 275 273 272 270 268 268 268 268 267 265 262 261 261 262 262 263 263 263 261 259 257 255 253 253 252 252 252 250 247 245 242 243
307 308 308 309 308 307 306 305 305 305 305 306 307 307 306 305 305 304 303 302 302 300 299 297 297 297 296 295 293 290 288 286 283 281 280 279 278 276 275 273 271 269 268 268 268 269 268 265 263 262 261 261 262 262 262 261 260 258 256 254 253 253 252 252 250 248 247 245 245
309 309 309 309 308 307 306 306 306 306 306 307 307 306 306 305 304 303 302 301 300 299 298 297 296 295 295 294 293 291 289 288 285 284 282 281 279 278 276 275 272 271 269 268 268 268 268 268 267 265 264 262 262 261 261 260 260 258 257 256 254 253 252 252 250 249 248 247 247
308 309 309 308 307 306 306 306 306 306 306 306 306 305 304 303 302 301 300 299 298 297 296 296 296 295 293 292 291 290 288 287 285 284 282 281 280 278 277 276 274 272 270 269 268 268 268 268 268 267 266 265 264 262 261 260 260 259 258 256 255 254 253 251 250 249 248 248 248
307 307 307 306 306 305 305 305 305 305 305 304 304 303 302 300 299 298 297 297 297 297 296 294 295 294 293 292 291 289 288 286 286 285 283 282 280 278 277 277 275 273 271 269 269 268 268 268 268 268 267 266 265 264 262 261 261 259 258 257 256 254 253 251 250 249 248 248 248
305 305 305 305 304 303 303 303 303 303 302 302 301 300 298 298 297 295 295 295 296 296 295 294 293 293 293 292 291 290 289 288 287 286 285 284 281 279 277 277 276 275 273 270 269 269 268 268 268 267 267 266 264 263 262 262 262 260 259 258 257 255 253 252 250 249 248 247 247
305 305 304 304 302 301 301 302 302 301 301 299 298 297 296 296 295 294 294 295 296 296 295 294 293 292 292 291 290 290 289 289 287 286 285 284 282 281 279 277 276 276 274 273 271 270 269 268 267 266 266 265 264 262 261 261 262 262 261 260 258 256 255 253 251 250 248 247 247
306 306 305 303 302 302 302 302 301 300 299 298 297 297 296 296 295 296 296 296 296 295 295 294 293 293 292 290 289 289 289 288 287 286 285 284 283 282 281 279 276 275 274 273 272 271 270 270 268 265 263 262 262 261 260 258 259 259 259 259 258 257 255 253 252 250 249 248 247
306 306 306 305 304 303 302 302 301 300 299 298 298 298 297 297 298 298 298 297 296 295 295 294 293 293 292 291 289 287 287 287 287 287 286 285 284 284 283 281 277 274 273 272 272 272 272 272 270 267 263 259 258 257 256 254 254 254 254 255 256 256 255 253 251 249 248 248 247
307 306 305 304 304 303 302 301 300 299 299 298 298 298 299 299 299 299 299 298 297 296 295 294 294 293 293 292 290 288 286 286 287 287 288 288 288 287 286 285 282 279 275 273 275 276 277 279 278 276 272 268 264 261 257 253 250 249 249 250 252 254 254 254 252 250 248 247 245
307 306 305 304 303 303 302 301 300 299 299 299 299 300 300 300 300 300 299 299 298 297 297 296 295 295 295 294 292 291 289 288 288 289 290 291 291 290 289 288 286 283 279 276 279 281 283 284 284 284 282 279 276 273 269 263 255 250 248 248 249 250 252 253 253 251 249 247 244
307 306 305 304 303 302 301 300 300 300 300 300 301 300 300 301 301 300 300 298 298 298 298 297 296 296 296 296 295 293 292 291 291 290 290 290 290 290 290 289 288 284 281 281 284 286 287 288 288 287 287 284 282 279 276 274 268 261 255 252 250 250 250 251 253 253 252 250 247
306 305 304 304 303 302 301 302 302 302 302 302 301 301 301 301 301 300 299 298 298 299 299 298 297 298 298 297 296 295 294 293 293 292 291 290 289 289 289 290 289 286 285 286 288 290 291 291 291 290 289 287 285 280 276 274 273 269 265 261 257 255 254 253 255 257 256 255 251
303 303 303 303 302 302 302 303 303 303 302 302 301 301 300 300 300 299 298 298 299 299 300 300 300 299 298 297 297 296 295 294 293 292 292 291 290 289 289 290 289 288 288 290 291 292 293 293 292 291 290 288 286 282 278 275 274 273 271 268 265 263 262 261 262 261 260 257 254
301 302 302 301 301 302 302 303 302 302 302 302 301 300 300 300 299 299 299 300 299 299 299 299 299 298 297 296 296 296 295 294 293 292 292 291 291 291 291 291 291 290 291 292 292 293 292 292 292 291 290 289 287 284 279 277 276 275 274 272 271 270 269 268 267 264 262 258 255
300 300 300 300 300 301 301 302 302 301 301 301 300 300 299 299 299 299 299 300 299 298 298 297 296 295 294 294 294 294 294 294 294 293 292 292 292 293 293 293 293 291 290 291 292 292 292 292 292 291 291 290 289 286 280 277 275 274 273 273 273 272 271 269 266 263 260 259 262
298 298 298 298 299 300 300 301 301 301 301 300 300 299 299 298 298 298 298 298 298 298 299 298 297 296 296 296 295 295 294 295 295 294 294 294 294 294 295 294 294 292 291 291 292 292 293 293 292 292 291 291 289 286 281 277 275 273 271 271 270 269 268 266 264 262 263 267 273
296 297 297 297 298 299 300 301 301 302 301 301 300 299 299 298 298 298 298 297 298 298 299 298 298 298 298 298 298 297 297 296 296 296 296 296 295 295 295 294 293 292 292 292 293 293 293 293 293 292 292 291 289 286 282 279 276 273 271 270 268 267 266 265 267 270 274 277 279
296 296 296 296 298 299 301 302 303 303 303 302 301 300 299 299 299 299 299 299 299 298 297 297 296 296 296 296 297 297 297 298 298 298 298 297 296 295 294 293 292 291 292 292 293 293 294 294 294 294 293 293 291 289 286 285 283 280 277 275 274 274 275 276 278 279 279 279 277
296 296 297 298 300 301 303 304 305 305 304 303 302 301 301 300 299 299 299 300 299 298 297 296 295 295 295 295 295 296 297 298 299 298 298 297 296 294 293 292 291 290 291 292 293 294 295 295 296 297 297 297 296 293 291 290 288 285 284 283 283 283 282 280 279 277 276 275 274
295 297 298 300 302 304 305 306 306 306 305 304 303 303 302 301 300 299 299 300 299 298 297 297 298 298 298 299 298 298 298 298 298 298 297 296 295 295 294 293 292 291 292 293 294 295 297 298 300 301 302 301 299 295 292 289 286 284 283 283 283 282 281 278 275 273 271 270 268
296 299 301 303 304 305 306 306 306 306 305 304 303 303 303 303 302 301 301 301 300 300 300 300 301 302 302 302 301 300 298 297 297 296 296 296 295 295 295 295 294 293 294 295 297 298 300 302 303 304 304 302 298 293 289 286 282 281 280 280 279 278 277 276 273 270 267 263 261
301 302 303 304 304 305 305 306 306 305 305 304 303 303 302 302 302 302 302 303 302 302 303 303 303 303 302 302 300 299 298 297 296 296 296 297 297 297 296 296 296 295 296 297 299 301 303 304 304 304 303 299 296 292 288 283 279 277 277 276 275 274 273 272 269 266 263 259 258
304 304 303 303 303 304 304 304 304 303 303 303 303 303 303 303 302 302 303 304 303 303 303 303 302 302 301 300 300 300 300 299 298 298 298 298 298 298 298 297 297 297 297 299 301 302 303 303 302 302 301 298 294 290 285 279 276 275 274 274 274 273 272 269 266 265 263 260 260
304 304 303 302 301 302 302 302 302 302 302 302 302 302 302 302 302 302 303 304 303 302 301 301 300 300 300 300 300 301 301 302 301 301 300 300 299 298 298 297 296 297 298 300 302 302 302 301 300 300 299 297 293 287 281 276 274 273 274 275 276 275 273 270 267 265 264 263 264
303 303 302 300 300 300 300 301 301 301 300 300 300 300 301 302 302 303 304 304 303 302 300 299 299 299 300 301 301 302 302 303 303 303 302 301 299 298 297 296 296 297 298 300 301 300 300 299 298 299 299 297 293 287 281 276 276 277 279 281 281 280 278 276 272 268 266 267 268